* Astronomy

Members Login
Username 
 
Password 
    Remember Me  
Post Info TOPIC: Asteroid 2015 YA1


L

Posts: 131433
Date:
Asteroid 2015 YA1
Permalink  
 


Orbital elements:
2015 YA1                                                 Earth MOID = 0.0017 AU
Epoch 2016 Jan. 13.0 TT = JDT 2457400.5                 MPC
M  93.84157              (2000.0)            P               Q
n   0.88969598     Peri.   86.27219     +0.98528170     +0.12705465
a   1.0706355      Node   266.40370     -0.16206541     +0.90705755
e   0.1873856      Incl.    6.57945     +0.05435793     +0.40137727
P   1.11           H   24.5           G   0.15           U   7

MPEC 2015 - Y39



__________________
Page 1 of 1  sorted by
 
Quick Reply

Please log in to post quick replies.



Create your own FREE Forum
Report Abuse
Powered by ActiveBoard